Home   Weather   Constantine   Past weeks

Flag for Algeria Past Weather in Constantine, Algeria — Yesterday and Last 2 Weeks

Now
52 °F

Clear.


Feels Like: 52 °F
Forecast: 50 / 69 °F
Wind: No wind

Location: Constantine Airport

Current Time: Feb 23, 2017 at 1:18:02 am

Latest Report: Feb 23, 2017 at 12:30 am


Visibility: 5 mi

Pressure: 30.18 "Hg (28.22 "Hg at 557m altitude)

Humidity: 77%

Dew Point: 45 °F

Location of ConstantineLocation

Past Weather in Constantine — Graph

°F

Constantine Temperature Yesterday

Maximum temperature yesterday: 68 °F (at 2:00 pm)
Minimum temperature yesterday: 45 °F (at 2:00 am)
Average temperature yesterday: 55 °F

High & Low Weather Summary for the Past Weeks

 TemperatureHumidityPressure
High73 °F (Feb 13, 2:30 pm)100% (Feb 18, 2:30 am)30.45 "Hg (Feb 18, 2:30 am)
Low34 °F (Feb 8, 8:30 pm)19% (Feb 13, 2:00 pm)29.92 "Hg (Feb 8, 2:00 pm)
Average48 °F71%30.16 "Hg
* Reported Feb 8 12:00 am — Feb 23 12:00 am, Constantine, Weather by CustomWeather, © 2017

Note: Actual official high and low records may vary slightly from our data, if they occured in-between our weather recording intervals... More about our weather records

Advertising

Constantine Weather History for the Previous 24 Hours

Scroll right to see more
 ConditionsComfort  
Time TempWeatherWind HumidityBarometerVisibility
12:00 am
Thu, Feb 23
52 °FClear.No wind77%30.18 "Hg5 mi
11:30 pm
Wed, Feb 22
52 °FClear.5 mph82%30.18 "Hg5 mi
11:00 pm54 °FClear.2 mph77%30.18 "Hg5 mi
10:30 pm54 °FClear.5 mph77%30.21 "Hg5 mi
10:00 pm55 °FClear.2 mph72%30.21 "Hg5 mi
9:30 pm54 °FClear.2 mph72%30.18 "Hg5 mi
9:00 pm55 °FClear.2 mph67%30.21 "Hg5 mi
8:30 pm57 °FClear.No wind67%30.21 "Hg4 mi
7:30 pm59 °FClear.3 mph63%30.18 "Hg4 mi
7:00 pm59 °FClear.3 mph63%30.18 "Hg4 mi
6:30 pm59 °FClear.5 mph63%30.18 "Hg4 mi
5:30 pm64 °FClear.2 mph52%30.15 "Hg5 mi
5:00 pm66 °FClear.2 mph49%30.15 "Hg5 mi
4:30 pm68 °FClear.3 mph40%30.18 "Hg5 mi
4:00 pm68 °FClear.3 mph43%30.18 "Hg5 mi
3:30 pm68 °FClear.3 mph43%30.18 "Hg5 mi
3:00 pm68 °FClear.3 mph43%30.18 "Hg5 mi
2:30 pm68 °FClear.2 mph40%30.18 "Hg5 mi
2:00 pm68 °FClear.5 mph40%30.18 "Hg6 mi
1:30 pm66 °FClear.5 mph43%30.21 "Hg6 mi
1:00 pm64 °FClear.3 mph46%30.21 "Hg6 mi
12:30 pm63 °FClear.5 mph45%30.24 "Hg6 mi
12:00 pm63 °FClear.3 mph52%30.24 "Hg6 mi
11:30 am63 °FClear.6 mph52%30.24 "Hg6 mi
11:00 am61 °FClear.3 mph59%30.24 "Hg6 mi
10:30 am57 °FClear.5 mph67%30.24 "Hg6 mi
10:00 am54 °FClear.3 mph67%30.24 "Hg6 mi
9:30 am52 °FClear.No wind77%30.24 "Hg6 mi
9:00 am48 °FClear.2 mph87%30.24 "Hg6 mi
8:30 am46 °FClear.No wind82%30.21 "Hg5 mi
8:00 am46 °FClear.2 mph82%30.21 "Hg3 mi
7:30 am45 °FClear.3 mph81%30.21 "Hg4 mi
7:00 am45 °FClear.No wind87%30.21 "Hg4 mi
6:30 am45 °FClear.No wind87%30.21 "Hg4 mi
6:00 am46 °FClear.No wind87%30.18 "Hg4 mi
5:30 am45 °FClear.No wind87%30.18 "Hg4 mi
5:00 am45 °FClear.No wind87%30.18 "Hg4 mi
4:30 am45 °FClear.No wind87%30.18 "Hg4 mi
4:00 am45 °FClear.2 mph87%30.18 "Hg4 mi
3:30 am45 °FClear.No wind87%30.18 "Hg4 mi
3:00 am45 °FClear.No wind87%30.21 "Hg4 mi
2:30 am45 °FClear.2 mph87%30.21 "Hg4 mi
2:00 am45 °FClear.3 mph87%30.21 "Hg4 mi
1:30 am46 °FClear.No wind87%30.21 "Hg4 mi
Weather by CustomWeather, © 2017

See weather overviewHow to use our weather pages